Hourly Data Report for October 06, 2015

All times are specified in Local Standard Time (LST). Add 1 hour to adjust for Daylight Saving Time where and when it is observed.

KITCHENER/WATERLOO
ONTARIO

43°27'39.000" N
80°22'43.000" W
321.60 m
6144239
71368
YKF

Download Data

Hourly Data (October 2015)
Hourly Data Report for October 6, 2015
Temp Definition
°C
Dew Point Temp Definition
°C
Rel Hum Definition
%
Wind Dir Definition
10's deg

Wind Spd Definition
km/h
Visibility Definition
km
Stn Press Definition
kPa
Hmdx Definition


Wind Chill Definition


Weather Definition


TIME
00:00 Legend Double Dagger 12.7 12.3 97 13 5 1.6 98.23     Fog
01:00 Legend Double Dagger 12.6 12.5 99 15 8 0.6 98.19     Fog
02:00 Legend Double Dagger 12.5 12.4 99 13 4 0.4 98.17     Fog
03:00 Legend Double Dagger 12.5 12.4 99 21 4 0.4 98.17     Fog
04:00 Legend Double Dagger 12.5 12.4 99 20 4 1.2 98.15     Rain,Fog
05:00 Legend Double Dagger 12.5 12.4 99   0 1.2 98.17     Rain,Fog
06:00 Legend Double Dagger 12.1 12.0 99 35 8 4.8 98.17     Rain,Fog
07:00 Legend Double Dagger 12.1 12.0 99 31 4 16.1 98.19     LegendNANA
08:00 Legend Double Dagger 12.5 12.4 99 31 5 16.1 98.20     LegendNANA
09:00 Legend Double Dagger 13.1 12.0 93 30 8 16.1 98.22     LegendNANA
10:00 Legend Double Dagger 14.3 12.2 87 LegendMM 5 16.1 98.23     LegendNANA
11:00 Legend Double Dagger 15.3 11.8 79 29 11 16.1 98.19     LegendNANA
12:00 Legend Double Dagger 14.9 11.5 80 30 15 16.1 98.16     LegendNANA
13:00 Legend Double Dagger 15.0 11.4 79 29 13 16.1 98.12     LegendNANA
14:00 Legend Double Dagger 15.5 11.7 78 29 17 16.1 98.05     LegendNANA
15:00 Legend Double Dagger 14.8 11.2 79 29 13 16.1 98.02     LegendNANA
16:00 Legend Double Dagger 14.8 11.4 80 31 13 16.1 98.00     LegendNANA
17:00 Legend Double Dagger 14.4 11.4 82 33 9 16.1 97.99     LegendNANA
18:00 Legend Double Dagger 13.7 11.3 86 31 5 16.1 98.00     LegendNANA
19:00 Legend Double Dagger 13.5 11.1 86 26 4 16.1 97.98     LegendNANA
20:00 Legend Double Dagger 13.5 10.9 84 31 8 16.1 97.99     LegendNANA
21:00 Legend Double Dagger 13.3 10.3 82 30 8 16.1 97.99     LegendNANA
22:00 Legend Double Dagger 11.8 9.8 88 27 4 16.1 97.98     LegendNANA
23:00 Legend Double Dagger 8.6 8.3 98 27 8 16.1 97.97     LegendNANA

Notes on Data Quality.

Legend

  • E = Estimated
  • M = Missing
  • NA = Not Available
  • ‡ = Partner data that is not subject to review by the National Climate Archives
Date modified: